Location: Cardiff
(53.7833°N, 113.6000°W)
Time: 15:39:15
(UTC+00:00)

RS-15 - Pass Details

Date: 04 December 2023
Orbit: 1893 x 2151 km, 64.8° (Epoch: 27 February)

Event Time Altitude Azimuth Distance (km) Brightness Sun altitude
Exits shadow 13:52:11 13° 310° (NW) 4,171 9.2 -13.9°
Maximum altitude 14:01:13 39° 250° (WSW) 2,667 8.4 -12.6°
Drops below altitude 10° 14:10:58 10° 187° (S) 4,288 10.0 -11.3°
Sets 14:14:27 0° 180° (S) 5,269 10.6 -10.8°
